TimeEST,TemperatureF,Dew PointF,Humidity,Sea Level PressureIn,VisibilityMPH,Wind Direction,Wind SpeedMPH,Gust SpeedMPH,PrecipitationIn,Events,Conditions,WindDirDegrees,DateUTC
12:53 AM,70.0,64.0,81,30.07,10.0,NNW,8.1,-,N/A,,Mostly Cloudy,340,2012-11-16 05:53:00
1:53 AM,69.1,64.0,84,30.06,10.0,NNW,5.8,-,N/A,,Mostly Cloudy,340,2012-11-16 06:53:00
2:53 AM,68.0,64.0,87,30.06,10.0,NNW,5.8,-,N/A,,Scattered Clouds,330,2012-11-16 07:53:00
3:53 AM,66.9,63.0,87,30.06,10.0,NNW,4.6,-,N/A,,Scattered Clouds,340,2012-11-16 08:53:00
4:53 AM,66.0,63.0,90,30.06,10.0,NNW,5.8,-,N/A,,Overcast,330,2012-11-16 09:53:00
5:53 AM,66.9,63.0,87,30.08,7.0,NNW,4.6,-,N/A,,Overcast,340,2012-11-16 10:53:00
6:53 AM,66.9,63.0,87,30.08,7.0,NW,5.8,-,N/A,,Mostly Cloudy,320,2012-11-16 11:53:00
7:11 AM,66.2,62.6,88,30.08,10.0,NNW,8.1,16.1,N/A,,Mostly Cloudy,330,2012-11-16 12:11:00
7:32 AM,66.2,62.6,88,30.09,10.0,North,6.9,-,N/A,,Mostly Cloudy,350,2012-11-16 12:32:00
7:53 AM,66.0,63.0,90,30.10,10.0,North,6.9,-,N/A,,Overcast,350,2012-11-16 12:53:00
8:53 AM,69.1,64.0,84,30.11,10.0,North,5.8,-,N/A,,Mostly Cloudy,360,2012-11-16 13:53:00
9:21 AM,69.8,64.4,83,30.12,10.0,North,6.9,-,N/A,,Overcast,360,2012-11-16 14:21:00
9:49 AM,73.4,64.4,73,30.12,10.0,North,5.8,-,N/A,,Mostly Cloudy,10,2012-11-16 14:49:00
9:53 AM,73.0,64.0,73,30.12,10.0,North,5.8,-,N/A,,Mostly Cloudy,10,2012-11-16 14:53:00
10:53 AM,73.0,64.0,73,30.10,10.0,Calm,Calm,-,N/A,,Mostly Cloudy,0,2012-11-16 15:53:00
11:53 AM,75.0,64.9,71,30.08,10.0,NE,5.8,-,N/A,,Mostly Cloudy,40,2012-11-16 16:53:00
12:53 PM,78.1,64.0,62,30.06,10.0,Variable,4.6,-,N/A,,Mostly Cloudy,0,2012-11-16 17:53:00
1:53 PM,77.0,64.0,64,30.04,10.0,North,5.8,-,N/A,,Mostly Cloudy,10,2012-11-16 18:53:00
2:53 PM,77.0,63.0,62,30.04,10.0,East,8.1,-,N/A,,Overcast,80,2012-11-16 19:53:00
3:53 PM,75.9,64.9,69,30.03,10.0,East,9.2,-,N/A,,Mostly Cloudy,90,2012-11-16 20:53:00
4:53 PM,75.9,64.0,67,30.04,10.0,NNE,3.5,-,N/A,,Mostly Cloudy,30,2012-11-16 21:53:00
5:53 PM,75.0,64.9,71,30.04,10.0,ENE,5.8,-,N/A,,Mostly Cloudy,60,2012-11-16 22:53:00
6:53 PM,75.0,64.9,71,30.06,10.0,Calm,Calm,-,N/A,,Mostly Cloudy,0,2012-11-16 23:53:00
7:53 PM,73.0,66.0,79,30.07,10.0,NNW,4.6,-,N/A,,Mostly Cloudy,330,2012-11-17 00:53:00
8:53 PM,72.0,66.0,81,30.07,10.0,Calm,Calm,-,0.00,,Mostly Cloudy,0,2012-11-17 01:53:00
9:53 PM,72.0,66.0,81,30.08,10.0,North,3.5,-,N/A,,Mostly Cloudy,350,2012-11-17 02:53:00
10:53 PM,73.0,64.9,76,30.08,10.0,North,3.5,-,N/A,,Mostly Cloudy,360,2012-11-17 03:53:00
11:53 PM,70.0,64.9,84,30.05,10.0,Calm,Calm,-,N/A,,Mostly Cloudy,0,2012-11-17 04:53:00